User: anonymous   Login
Location: Unspecified
(0.0000°N, 0.0000°E)
Time: 00:21:31
(UTC+00:00)
Language:

USA 48 - Orbit

View from above orbital plane
View from above orbital plane
View from above satellite
View from above satellite

Ground track
Ground track

The orbit data is extracted from the following two-line orbital elements,

1 20355U 89090B   17036.34909288 0.00000000  00000-0  00000-0 0    04
2 20355  18.0737  17.0940 0279362  16.9107 344.1341  1.00734822    04
Epoch (UTC): 05 February 2017 08:22:41
Eccentricity: 0.0279362
inclination: 18.0737°
perigee height: 34482 km
apogee height: 36831 km
right ascension of ascending node: 17.0940°
argument of perigee: 16.9107°
revolutions per day: 1.00734822
mean anomaly at epoch: 344.1341°
orbit number at epoch: 0

The dashed part of the orbit path shows where the satellite is in the earth's shadow,  

DLR